Location: *
(2.5500°S, 65.9667°W)
Time: 17:50:15
(UTC+00:00)

A-11 Canister half - Pass Details

Date: 14 April 2024
Orbit: 1525 x 1683 km, 47.3° (Epoch: 21 May)

Event Time Altitude Azimuth Distance (km) Brightness Sun altitude
Exits shadow 08:26:05 37° 208° (SSW) 2,327 9.6 -29.5°
Maximum altitude 08:30:41 76° 130° (SE) 1,665 9.1 -28.4°
Drops below altitude 10° 08:40:40 10° 45° (NE) 3,901 11.8 -25.9°
Sets 08:43:50 0° 43° (NE) 4,900 12.4 -25.1°
